DW8785 Weather Reports


time (UTC)temp
C
wind
direction
speed
KPH
gust
KPH
rain 1hr
cm
rain 24hr
cm
rain mn
cm
humidity
%
barometer
mb
20260901070018 21 169 3.2 0.0 0.00 0.00 0.00 74 1013.1
20260901064514 21 178 8.0 0.0 0.00 0.00 0.00 77 1013.1
20260901063015 20 178 6.4 0.0 0.00 0.00 0.00 78 1013.1
20260901061505 20 178 3.2 0.0 0.00 0.00 0.00 79 1013.1
20260901060001 20 164 4.8 0.0 0.00 0.00 0.00 81 1013.0
20260901054557 20 179 8.0 0.0 0.00 0.00 0.00 80 1013.0
20260901053053 19 184 8.0 0.0 0.00 0.00 0.00 82 1012.7
20260901051547 19 184 8.0 0.0 0.00 0.00 0.00 79 1012.5
20260901050044 19 186 8.0 0.0 0.00 0.00 0.00 78 1012.4
20260901044539 20 186 8.0 0.0 0.00 0.00 0.00 74 1012.5
20260901043035 20 185 6.4 0.0 0.00 0.00 0.00 75 1012.5
20260901041534 20 184 6.4 0.0 0.00 0.00 0.00 76 1012.2
20260901040027 20 185 6.4 0.0 0.00 0.00 0.00 72 1012.3
20260901034529 20 185 6.4 0.0 0.00 0.00 0.00 73 1012.3
20260901033018 19 185 6.4 0.0 0.00 0.00 0.00 76 1012.1
20260901031524 19 186 6.4 0.0 0.00 0.00 0.00 78 1011.9
20260901030010 19 186 8.0 0.0 0.00 0.00 0.00 80 1011.7
20260901024506 21 281 4.8 0.0 0.00 0.00 0.00 65 1011.7
20260901023005 20 285 9.7 0.0 0.00 0.00 0.00 67 1011.7
20260901021558 19 192 14.5 0.0 0.00 0.00 0.00 82 1011.6
20260901020054 18 198 12.9 0.0 0.00 0.00 0.00 87 1011.9
20260901014552 18 185 16.1 0.0 0.00 0.00 0.00 90 1011.9
20260901013104 18 189 17.7 0.0 0.00 0.00 0.00 89 1011.8
20260901011542 18 182 19.3 0.0 0.00 0.00 0.00 88 1011.8
20260901010037 18 182 19.3 0.0 0.00 0.00 0.00 87 1011.6
20260901004532 18 192 19.3 0.0 0.00 0.00 0.00 86 1011.4
20260901003052 18 357 17.7 0.0 0.00 0.00 0.00 83 1011.3
20260901001547 19 281 16.1 0.0 0.00 0.00 0.00 77 1011.4
20260901000044 18 185 16.1 0.0 0.00 0.00 0.00 81 1011.2
20260831234551 19 188 19.3 0.0 0.00 0.00 0.00 77 1010.9
20260831233010 20 357 24.1 0.0 0.00 0.00 0.00 71 1011.0
20260831231505 20 359 20.9 0.0 0.00 0.00 0.00 71 1010.8
20260831230002 20 359 24.1 0.0 0.00 0.00 0.00 70 1010.7
20260831224557 20 359 27.4 0.0 0.00 0.00 0.00 68 1010.5
20260831223054 21 0 22.5 0.0 0.00 0.00 0.00 66 1010.3
20260831221605 21 357 29.0 0.0 0.00 0.00 0.00 65 1010.2
20260831220045 21 359 25.7 0.0 0.00 0.00 0.00 65 1010.3
20260831214543 21 288 19.3 0.0 0.00 0.00 0.00 65 1010.3
20260831213035 20 359 19.3 0.0 0.00 0.00 0.00 64 1010.1
20260831211533 21 284 24.1 0.0 0.00 0.00 0.00 64 1010.2
20260831210027 21 359 20.9 0.0 0.00 0.00 0.00 62 1010.4
20260831204523 20 350 16.1 0.0 0.00 0.00 0.00 68 1010.2
20260831203017 20 359 19.3 0.0 0.00 0.00 0.00 67 1009.9
20260831201516 21 357 25.7 0.0 0.00 0.00 0.00 61 1009.9
20260831200008 21 0 30.6 0.0 0.00 0.00 0.00 59 1009.8
20260831194504 21 359 30.6 0.0 0.00 0.00 0.00 61 1009.9
20260831193101 21 357 27.4 0.0 0.00 0.00 0.00 64 1009.9
20260831191559 21 359 30.6 0.0 0.00 0.00 0.00 66 1010.1
20260831190051 21 359 27.4 0.0 0.00 0.00 0.00 67 1009.9
20260831184548 21 359 25.7 0.0 0.00 0.00 0.00 70 1009.8
20260831183043 21 284 29.0 0.0 0.00 0.00 0.00 70 1009.6
20260831181548 21 0 29.0 0.0 0.00 0.00 0.00 69 1009.7
20260831180034 21 359 25.7 0.0 0.00 0.00 0.00 69 1009.6
20260831174530 22 357 30.6 0.0 0.00 0.00 0.00 69 1009.9
20260831173025 22 359 27.4 0.0 0.00 0.00 0.00 69 1009.8
20260831171521 23 356 24.1 0.0 0.00 0.00 0.00 67 1009.8
20260831170017 23 359 25.7 0.0 0.00 0.00 0.00 68 1009.8
20260831164517 23 357 19.3 0.0 0.00 0.00 0.00 68 1010.0
20260831163014 24 357 16.1 0.0 0.00 0.00 0.00 66 1009.9
20260831161506 24 357 19.3 0.0 0.00 0.00 0.00 65 1010.1
20260831154558 25 192 24.1 0.0 0.00 0.00 0.00 61 1010.2
20260831153153 25 359 20.9 0.0 0.00 0.00 0.00 60 1010.1
20260831151546 25 357 19.3 0.0 0.00 0.00 0.00 58 1010.0
20260831150042 26 185 22.5 0.0 0.00 0.00 0.00 55 1009.9
20260831144538 26 189 19.3 0.0 0.00 0.00 0.00 53 1009.9
20260831143138 26 359 19.3 0.0 0.00 0.00 0.00 51 1010.1
20260831141528 26 184 24.1 0.0 0.00 0.00 0.00 52 1010.0
20260831140034 26 357 22.5 0.0 0.00 0.00 0.00 52 1010.1
20260831134521 26 199 22.5 0.0 0.00 0.00 0.00 53 1010.2
20260831133116 26 186 20.9 0.0 0.00 0.00 0.00 52 1010.3
20260831131512 26 175 20.9 0.0 0.00 0.00 0.00 51 1010.2
20260831130007 26 186 20.9 0.0 0.00 0.00 0.00 48 1010.2
20260831124504 26 192 19.3 0.0 0.00 0.00 0.00 48 1010.3
20260831123059 26 196 19.3 0.0 0.00 0.00 0.00 44 1010.4
20260831121553 26 184 24.1 0.0 0.00 0.00 0.00 43 1010.4
20260831120109 26 176 22.5 0.0 0.00 0.00 0.00 37 1010.5
20260831114546 26 195 22.5 0.0 0.00 0.00 0.00 36 1010.3
20260831113048 26 354 20.9 0.0 0.00 0.00 0.00 35 1010.5
20260831111536 27 181 17.7 0.0 0.00 0.00 0.00 33 1010.4
20260831110031 26 357 16.1 0.0 0.00 0.00 0.00 36 1010.4
20260831104535 27 188 12.9 0.0 0.00 0.00 0.00 41 1010.6
20260831103023 26 195 11.3 0.0 0.00 0.00 0.00 43 1010.5
20260831101517 26 130 8.0 0.0 0.00 0.00 0.00 39 1010.8
20260831100012 26 295 9.7 0.0 0.00 0.00 0.00 41 1010.9
20260831094508 25 154 6.4 0.0 0.00 0.00 0.00 42 1010.9
20260831093004 25 162 9.7 0.0 0.00 0.00 0.00 43 1010.9
20260831091600 25 184 6.4 0.0 0.00 0.00 0.00 46 1011.1
20260831084558 25 162 1.6 0.0 0.00 0.00 0.00 48 1011.0
20260831083048 25 160 1.6 0.0 0.00 0.00 0.00 48 1011.0
20260831081543 24 158 3.2 0.0 0.00 0.00 0.00 51 1011.0
20260831080041 24 359 1.6 0.0 0.00 0.00 0.00 50 1010.8
20260831074534 23 359 1.6 0.0 0.00 0.00 0.00 51 1010.6
20260831073030 23 359 1.6 0.0 0.00 0.00 0.00 52 1010.8
20260831071525 23 357 0.0 0.0 0.00 0.00 0.00 51 1010.6